Home   Weather   Nizhny Novgorod   Past weeks

Flag for Russia Past Weather in Nizhny Novgorod, Russia — Yesterday and Last 2 Weeks

Now
61 °F

Light rain. Partly sunny.


Feels Like: 61 °F
Forecast: 46 / 50 °F
Wind: 1 mph from Southwest

Location: Nizhny Novgorod/Strigino

Current Time: Aug 31, 2016 at 7:33:29 AM

Latest Report: Aug 31, 2016 at 7:00 AM


Visibility: 3 mi

Pressure: 29.74 "Hg

Humidity: 94%

Dew Point: 59 °F

Location of Nizhny NovgorodLocation

Past Weather in Nizhny Novgorod — Graph

°F

Nizhny Novgorod Temperature Yesterday

Maximum temperature yesterday: 82 °F (at 3:00 PM)
Minimum temperature yesterday: 50 °F (at 12:00 AM)
Average temperature yesterday: 67 °F

High & Low Weather Summary for the Past Weeks

 TemperatureHumidityPressure
High90 °F (Aug 24, 2:00 PM)100% (Aug 16, 8:00 PM)30.27 "Hg (Aug 16, 8:00 PM)
Low46 °F (Aug 29, 4:00 AM)29% (Aug 24, 2:30 PM)29.74 "Hg (Aug 30, 6:00 PM)
Average67 °F76%30.07 "Hg
* Reported Aug 16 6:00 AM — Aug 31 6:30 AM, Nizhny Novgorod, Weather by CustomWeather, © 2016

Note: Actual official high and low records may vary slightly from our data, if they occured in-between our weather recording intervals... More about our weather records

Advertising

Nizhny Novgorod Weather History for the Previous 24 Hours

Scroll right to see more
 ConditionsComfort  
Time TempWeatherWind HumidityBarometerVisibility
6:30 AM
Wed, Aug 31
61 °FLight rain. Partly sunny.3 mph94%29.74 "Hg4 mi
6:00 AM61 °FLight rain. Partly sunny.3 mph94%29.74 "Hg4 mi
5:30 AM61 °FLight rain. Partly sunny.3 mph94%29.74 "Hg6 mi
5:00 AM61 °FLight rain. Passing clouds.3 mph94%29.74 "Hg6 mi
4:30 AM63 °FPassing clouds.6 mph88%29.74 "Hg6 mi
4:00 AM64 °FPassing clouds.3 mph83%29.74 "HgN/A
3:30 AM64 °FPassing clouds.3 mph83%29.74 "HgN/A
3:00 AM64 °FPassing clouds.3 mph78%29.74 "HgN/A
2:30 AM64 °FPassing clouds.6 mph78%29.74 "HgN/A
2:00 AM64 °FPassing clouds.6 mph78%29.74 "HgN/A
1:30 AM64 °FPassing clouds.3 mph78%29.74 "HgN/A
1:00 AM66 °FPassing clouds.3 mph73%29.74 "HgN/A
12:30 AM64 °FPassing clouds.No wind78%29.74 "HgN/A
12:00 AM64 °FPassing clouds.No wind78%29.77 "HgN/A
11:30 PM
Tue, Aug 30
64 °FPassing clouds.3 mph78%29.80 "HgN/A
11:00 PM64 °FPassing clouds.6 mph78%29.80 "HgN/A
10:30 PM64 °FPassing clouds.8 mph78%29.80 "HgN/A
10:00 PM64 °FPassing clouds.3 mph78%29.80 "HgN/A
9:30 PM66 °FPassing clouds.1 mph73%29.83 "HgN/A
9:00 PM68 °FPassing clouds.3 mph64%29.83 "HgN/A
8:30 PM68 °FPassing clouds.6 mph64%29.86 "HgN/A
8:00 PM72 °FPassing clouds.8 mph61%29.83 "HgN/A
7:30 PM75 °FPassing clouds.3 mph44%29.80 "HgN/A
7:00 PM75 °FPassing clouds.6 mph44%29.77 "HgN/A
6:30 PM75 °FPassing clouds.8 mph44%29.77 "HgN/A
6:00 PM77 °FPassing clouds.8 mph44%29.74 "HgN/A
5:30 PM79 °FPassing clouds.8 mph45%29.77 "HgN/A
5:00 PM81 °FPassing clouds.8 mph42%29.77 "HgN/A
4:30 PM81 °FPassing clouds.8 mph45%29.77 "HgN/A
4:00 PM82 °FPassing clouds.10 mph42%29.77 "HgN/A
3:30 PM82 °FPassing clouds.8 mph42%29.80 "HgN/A
3:00 PM82 °FPassing clouds.13 mph45%29.80 "HgN/A
2:30 PM81 °FPassing clouds.13 mph45%29.83 "HgN/A
2:00 PM81 °FPassing clouds.13 mph45%29.83 "HgN/A
1:30 PM81 °FScattered clouds.8 mph45%29.83 "HgN/A
1:00 PM79 °FPassing clouds.8 mph45%29.86 "HgN/A
12:30 PM77 °FPassing clouds.10 mph44%29.83 "HgN/A
12:00 PM75 °FPassing clouds.10 mph50%29.83 "HgN/A
11:30 AM75 °FPassing clouds.10 mph50%29.86 "HgN/A
11:00 AM75 °FPassing clouds.8 mph47%29.86 "HgN/A
10:30 AM72 °FScattered clouds.10 mph53%29.89 "HgN/A
10:00 AM70 °FScattered clouds.13 mph53%29.89 "HgN/A
9:30 AM70 °FScattered clouds.8 mph53%29.89 "HgN/A
9:00 AM66 °FPassing clouds.10 mph56%29.89 "HgN/A
8:30 AM64 °FPassing clouds.8 mph56%29.92 "HgN/A
8:00 AM61 °FPassing clouds.6 mph63%29.92 "HgN/A
7:30 AM57 °FScattered clouds.6 mph72%29.95 "HgN/A
7:00 AM55 °FThunderstorms. Partly sunny.3 mph77%29.95 "HgN/A
Weather by CustomWeather, © 2016

See weather overviewHow to use our weather pages